QPF
0.00 0.00 0.00 0.00 0.00 0.00 0.00 0.00 0.00 0.00 0.00 0.00 0.00 0.00 0.00 0.00 0.00 0.00 0.00 0.00 0.00 0.00 0.00 0.00 0.01 0.02 0.01 0.00 0.00 0.00 0.00 0.00 0.00 0.00 0.01 0.01 0.01 0.01 0.00 0.00 0.01 0.01 0.00 0.00 0.00 0.00 0.00 0.00 0.02
0.00 0.00 0.00 0.00 0.00 0.00 0.00 0.00 0.00 0.00 0.00 0.00 0.00 0.00 0.00 0.00 0.00 0.00 0.00 0.00 0.00 0.00 0.00 0.00 0.00 0.01 0.00 0.00 0.00 0.00 0.00 0.00 0.00 0.00 0.02 0.02 0.01 0.00 0.00 0.00 0.00 0.00 0.00 0.00 0.00 0.00 0.00 0.00 0.00
0.00 0.00 0.00 0.00 0.00 0.00 0.00 0.00 0.00 0.00 0.00 0.00 0.00 0.00 0.00 0.00 0.00 0.00 0.00 0.00 0.00 0.00 0.00 0.00 0.00 0.00 0.00 0.00 0.00 0.00 0.00 0.00 0.00 0.01 0.02 0.02 0.01 0.00 0.00 0.00 0.00 0.00 0.00 0.00 0.00 0.00 0.00 0.00 0.00
0.00 0.00 0.00 0.00 0.00 0.00 0.00 0.00 0.00 0.00 0.00 0.00 0.00 0.00 0.00 0.00 0.00 0.00 0.00 0.00 0.00 0.00 0.00 0.00 0.00 0.00 0.00 0.00 0.00 0.00 0.00 0.00 0.00 0.01 0.01 0.02 0.01 0.00 0.00 0.00 0.00 0.00 0.00 0.00 0.00 0.00 0.00 0.00 0.00
0.00 0.00 0.00 0.00 0.00 0.00 0.00 0.00 0.00 0.00 0.00 0.00 0.00 0.00 0.00 0.00 0.00 0.00 0.00 0.00 0.00 0.00 0.00 0.00 0.00 0.00 0.00 0.00 0.00 0.00 0.00 0.00 0.00 0.00 0.00 0.01 0.01 0.00 0.00 0.00 0.00 0.00 0.00 0.00 0.00 0.00 0.00 0.00 0.00
0.00 0.00 0.00 0.00 0.00 0.00 0.00 0.00 0.00 0.00 0.00 0.00 0.00 0.00 0.00 0.00 0.00 0.00 0.00 0.00 0.00 0.00 0.00 0.00 0.00 0.00 0.00 0.00 0.00 0.00 0.00 0.00 0.00 0.00 0.00 0.00 0.00 0.00 0.00 0.00 0.00 0.00 0.00 0.00 0.00 0.00 0.00 0.00 0.00
0.00 0.00 0.00 0.00 0.00 0.00 0.00 0.00 0.00 0.00 0.00 0.00 0.00 0.00 0.00 0.00 0.00 0.00 0.00 0.00 0.00 0.00 0.00 0.00 0.00 0.00 0.00 0.00 0.00 0.00 0.00 0.00 0.00 0.00 0.00 0.00 0.00 0.00 0.00 0.00 0.00 0.00 0.00 0.00 0.00 0.00 0.00 0.00 0.00
0.00 0.00 0.00 0.00 0.00 0.00 0.00 0.00 0.00 0.00 0.00 0.00 0.00 0.00 0.00 0.00 0.00 0.00 0.00 0.00 0.00 0.00 0.00 0.00 0.00 0.00 0.00 0.00 0.00 0.00 0.00 0.00 0.00 0.00 0.00 0.00 0.00 0.00 0.00 0.00 0.00 0.00 0.00 0.00 0.00 0.00 0.00 0.00 0.00
0.00 0.00 0.00 0.00 0.00 0.00 0.00 0.00 0.00 0.00 0.00 0.00 0.00 0.00 0.00 0.00 0.00 0.00 0.00 0.00 0.00 0.00 0.00 0.00 0.00 0.00 0.00 0.00 0.00 0.00 0.00 0.00 0.00 0.00 0.00 0.00 0.00 0.00 0.00 0.00 0.00 0.00 0.00 0.00 0.00 0.00 0.00 0.00 0.00
0.00 0.00 0.00 0.00 0.00 0.00 0.00 0.00 0.00 0.00 0.00 0.00 0.00 0.00 0.00 0.00 0.00 0.00 0.00 0.00 0.00 0.00 0.00 0.00 0.00 0.00 0.00 0.00 0.00 0.00 0.00 0.00 0.00 0.00 0.00 0.00 0.00 0.00 0.00 0.00 0.00 0.00 0.00 0.00 0.00 0.00 0.00 0.00 0.00
0.00 0.00 0.00 0.00 0.00 0.00 0.00 0.00 0.00 0.00 0.00 0.00 0.00 0.00 0.00 0.00 0.00 0.00 0.00 0.00 0.00 0.00 0.00 0.00 0.00 0.00 0.00 0.00 0.00 0.00 0.00 0.00 0.00 0.00 0.00 0.00 0.00 0.00 0.00 0.00 0.00 0.00 0.00 0.00 0.00 0.00 0.00 0.00 0.00
0.00 0.00 0.00 0.00 0.00 0.00 0.00 0.00 0.00 0.00 0.00 0.00 0.00 0.00 0.00 0.00 0.00 0.00 0.00 0.00 0.00 0.00 0.00 0.00 0.00 0.00 0.00 0.00 0.00 0.00 0.00 0.00 0.00 0.00 0.00 0.00 0.00 0.00 0.00 0.00 0.00 0.00 0.00 0.00 0.00 0.00 0.00 0.00 0.00
0.00 0.00 0.00 0.00 0.00 0.00 0.00 0.00 0.00 0.00 0.00 0.00 0.00 0.00 0.00 0.00 0.00 0.00 0.00 0.00 0.00 0.00 0.00 0.00 0.00 0.00 0.00 0.00 0.00 0.00 0.00 0.00 0.00 0.00 0.00 0.00 0.00 0.00 0.00 0.00 0.00 0.00 0.00 0.00 0.00 0.00 0.00 0.00 0.00
0.00 0.00 0.00 0.00 0.00 0.00 0.00 0.00 0.00 0.00 0.00 0.00 0.00 0.00 0.00 0.00 0.00 0.00 0.00 0.00 0.00 0.00 0.00 0.00 0.00 0.00 0.00 0.00 0.00 0.00 0.00 0.00 0.00 0.00 0.00 0.00 0.00 0.00 0.00 0.00 0.00 0.00 0.00 0.00 0.00 0.00 0.00 0.00 0.00
0.00 0.00 0.00 0.00 0.00 0.00 0.00 0.00 0.00 0.00 0.00 0.00 0.00 0.00 0.00 0.00 0.00 0.00 0.00 0.00 0.00 0.00 0.00 0.00 0.00 0.00 0.00 0.00 0.00 0.00 0.00 0.00 0.00 0.00 0.00 0.00 0.00 0.00 0.00 0.00 0.00 0.00 0.00 0.00 0.00 0.00 0.00 0.00 0.00
0.00 0.00 0.00 0.00 0.00 0.00 0.00 0.00 0.00 0.00 0.00 0.00 0.00 0.00 0.00 0.00 0.00 0.00 0.00 0.00 0.00 0.00 0.00 0.00 0.00 0.00 0.00 0.00 0.00 0.00 0.00 0.00 0.00 0.00 0.00 0.00 0.00 0.00 0.00 0.00 0.00 0.00 0.00 0.00 0.00 0.00 0.00 0.00 0.00
0.00 0.00 0.00 0.00 0.00 0.00 0.00 0.00 0.00 0.00 0.00 0.00 0.00 0.00 0.00 0.00 0.00 0.00 0.00 0.00 0.00 0.00 0.00 0.00 0.00 0.00 0.00 0.00 0.00 0.00 0.00 0.00 0.00 0.00 0.00 0.00 0.00 0.00 0.00 0.00 0.00 0.00 0.00 0.00 0.00 0.00 0.00 0.00 0.00
0.00 0.00 0.00 0.00 0.00 0.00 0.00 0.00 0.00 0.00 0.00 0.00 0.00 0.00 0.00 0.00 0.00 0.00 0.00 0.00 0.00 0.00 0.00 0.00 0.00 0.00 0.00 0.00 0.00 0.00 0.00 0.00 0.00 0.00 0.00 0.00 0.00 0.00 0.00 0.00 0.00 0.00 0.00 0.00 0.00 0.00 0.00 0.00 0.00
0.00 0.00 0.00 0.00 0.00 0.00 0.00 0.00 0.00 0.00 0.00 0.00 0.00 0.00 0.00 0.00 0.00 0.00 0.00 0.00 0.00 0.00 0.00 0.00 0.00 0.00 0.00 0.00 0.00 0.00 0.00 0.00 0.00 0.00 0.00 0.00 0.00 0.00 0.00 0.00 0.00 0.00 0.00 0.00 0.00 0.00 0.00 0.00 0.00
0.00 0.00 0.00 0.00 0.00 0.00 0.00 0.00 0.00 0.00 0.00 0.00 0.00 0.00 0.00 0.00 0.00 0.00 0.00 0.00 0.00 0.00 0.00 0.00 0.00 0.00 0.00 0.00 0.00 0.00 0.00 0.00 0.00 0.00 0.00 0.00 0.00 0.00 0.00 0.00 0.00 0.00 0.00 0.00 0.00 0.00 0.00 0.00 0.00
0.00 0.00 0.00 0.00 0.00 0.00 0.00 0.00 0.00 0.00 0.00 0.00 0.00 0.00 0.00 0.00 0.00 0.00 0.00 0.00 0.00 0.00 0.00 0.00 0.00 0.00 0.00 0.00 0.00 0.00 0.00 0.00 0.00 0.00 0.00 0.00 0.00 0.00 0.00 0.00 0.00 0.00 0.00 0.00 0.00 0.00 0.00 0.00 0.00
0.00 0.00 0.00 0.00 0.00 0.00 0.00 0.00 0.00 0.00 0.00 0.00 0.00 0.00 0.00 0.00 0.00 0.00 0.00 0.00 0.00 0.00 0.00 0.00 0.00 0.00 0.00 0.00 0.00 0.00 0.00 0.00 0.00 0.00 0.00 0.00 0.00 0.00 0.00 0.00 0.00 0.00 0.00 0.00 0.00 0.00 0.01 0.01 0.01
0.00 0.00 0.00 0.00 0.00 0.00 0.00 0.00 0.00 0.00 0.00 0.00 0.00 0.00 0.00 0.00 0.00 0.00 0.00 0.00 0.00 0.00 0.00 0.00 0.00 0.00 0.00 0.00 0.00 0.00 0.00 0.00 0.00 0.00 0.00 0.00 0.00 0.00 0.00 0.00 0.00 0.00 0.01 0.01 0.02 0.02 0.03 0.02 0.02
0.00 0.00 0.00 0.00 0.00 0.00 0.00 0.00 0.00 0.00 0.00 0.00 0.00 0.00 0.00 0.00 0.00 0.00 0.00 0.00 0.00 0.00 0.00 0.00 0.00 0.00 0.00 0.00 0.00 0.00 0.00 0.00 0.00 0.00 0.00 0.00 0.00 0.00 0.00 0.00 0.00 0.00 0.01 0.01 0.02 0.04 0.05 0.06 0.07
0.00 0.00 0.00 0.00 0.00 0.00 0.00 0.00 0.00 0.00 0.00 0.00 0.00 0.00 0.00 0.00 0.00 0.00 0.00 0.00 0.00 0.00 0.00 0.00 0.00 0.00 0.00 0.00 0.00 0.00 0.00 0.00 0.00 0.00 0.00 0.00 0.00 0.00 0.00 0.00 0.00 0.00 0.01 0.01 0.02 0.04 0.06 0.08 0.12
0.00 0.00 0.00 0.00 0.00 0.00 0.00 0.00 0.00 0.00 0.00 0.00 0.00 0.00 0.00 0.00 0.00 0.00 0.00 0.00 0.00 0.00 0.00 0.00 0.00 0.00 0.00 0.00 0.00 0.00 0.00 0.00 0.00 0.00 0.00 0.00 0.00 0.00 0.00 0.00 0.00 0.00 0.01 0.01 0.02 0.05 0.06 0.09 0.11
0.00 0.00 0.00 0.00 0.00 0.00 0.00 0.00 0.00 0.00 0.00 0.00 0.00 0.00 0.00 0.00 0.00 0.00 0.00 0.00 0.00 0.00 0.00 0.00 0.00 0.00 0.00 0.00 0.00 0.00 0.00 0.00 0.00 0.00 0.00 0.00 0.00 0.00 0.00 0.00 0.00 0.00 0.00 0.00 0.01 0.02 0.03 0.04 0.06
0.00 0.00 0.00 0.00 0.00 0.00 0.00 0.00 0.00 0.00 0.00 0.00 0.00 0.00 0.00 0.00 0.00 0.00 0.00 0.00 0.00 0.00 0.00 0.00 0.00 0.00 0.00 0.00 0.00 0.00 0.00 0.00 0.00 0.00 0.00 0.00 0.00 0.00 0.00 0.00 0.00 0.00 0.00 0.00 0.00 0.00 0.01 0.01 0.02
0.00 0.00 0.00 0.00 0.00 0.00 0.00 0.00 0.00 0.00 0.00 0.00 0.00 0.00 0.00 0.00 0.00 0.00 0.00 0.00 0.00 0.00 0.00 0.00 0.00 0.00 0.00 0.00 0.00 0.00 0.00 0.00 0.00 0.00 0.00 0.00 0.00 0.00 0.00 0.00 0.00 0.00 0.00 0.00 0.00 0.00 0.00 0.00 0.01
0.00 0.00 0.00 0.00 0.00 0.00 0.00 0.00 0.00 0.00 0.00 0.00 0.00 0.00 0.00 0.00 0.00 0.00 0.00 0.00 0.00 0.00 0.00 0.00 0.00 0.00 0.00 0.00 0.00 0.00 0.00 0.00 0.00 0.00 0.00 0.00 0.00 0.00 0.00 0.00 0.00 0.00 0.00 0.00 0.00 0.00 0.00 0.00 0.00
MSLP
1013.54 1014.20 1015.06 1015.96 1016.71 1017.17 1017.23 1016.88 1016.20 1015.31 1014.39 1013.59 1013.00 1012.68 1012.59 1012.65 1012.75 1012.80 1012.73 1012.56 1012.31 1012.08 1011.95 1011.97 1012.18 1012.53 1012.96 1013.39 1013.74 1013.97 1014.06 1014.05 1013.98 1013.93 1013.93 1014.01 1014.16 1014.35 1014.54 1014.68 1014.75 1014.75 1014.69 1014.61 1014.53 1014.48 1014.47 1014.50 1014.54
1014.07 1014.87 1015.78 1016.64 1017.25 1017.50 1017.32 1016.73 1015.83 1014.78 1013.76 1012.92 1012.35 1012.07 1012.03 1012.13 1012.27 1012.33 1012.28 1012.11 1011.89 1011.70 1011.61 1011.69 1011.95 1012.36 1012.83 1013.30 1013.68 1013.93 1014.05 1014.07 1014.03 1014.01 1014.03 1014.13 1014.29 1014.47 1014.64 1014.76 1014.82 1014.81 1014.75 1014.67 1014.61 1014.57 1014.57 1014.59 1014.62
1014.79 1015.67 1016.57 1017.32 1017.75 1017.76 1017.32 1016.48 1015.38 1014.20 1013.12 1012.27 1011.74 1011.52 1011.54 1011.70 1011.86 1011.93 1011.88 1011.72 1011.52 1011.35 1011.30 1011.43 1011.74 1012.18 1012.69 1013.18 1013.58 1013.85 1014.00 1014.04 1014.04 1014.04 1014.09 1014.20 1014.36 1014.53 1014.68 1014.79 1014.82 1014.81 1014.75 1014.69 1014.64 1014.62 1014.63 1014.66 1014.69
1015.63 1016.54 1017.38 1017.97 1018.18 1017.93 1017.23 1016.17 1014.91 1013.64 1012.54 1011.73 1011.26 1011.11 1011.20 1011.39 1011.57 1011.65 1011.60 1011.44 1011.25 1011.11 1011.09 1011.25 1011.58 1012.05 1012.56 1013.06 1013.46 1013.73 1013.89 1013.95 1013.97 1014.01 1014.08 1014.20 1014.36 1014.52 1014.66 1014.75 1014.77 1014.75 1014.70 1014.65 1014.63 1014.63 1014.65 1014.69 1014.73
1016.50 1017.40 1018.13 1018.54 1018.51 1018.01 1017.08 1015.85 1014.48 1013.17 1012.09 1011.34 1010.96 1010.88 1011.03 1011.25 1011.45 1011.53 1011.47 1011.31 1011.13 1011.00 1011.01 1011.18 1011.52 1011.98 1012.48 1012.95 1013.32 1013.58 1013.73 1013.80 1013.84 1013.90 1013.99 1014.13 1014.29 1014.45 1014.58 1014.66 1014.68 1014.66 1014.62 1014.59 1014.58 1014.60 1014.64 1014.69 1014.73
1017.28 1018.11 1018.71 1018.92 1018.68 1017.97 1016.87 1015.53 1014.12 1012.83 1011.81 1011.15 1010.85 1010.85 1011.03 1011.28 1011.47 1011.54 1011.48 1011.32 1011.15 1011.04 1011.06 1011.24 1011.57 1012.00 1012.46 1012.87 1013.20 1013.42 1013.55 1013.62 1013.67 1013.74 1013.86 1014.01 1014.18 1014.34 1014.47 1014.54 1014.56 1014.54 1014.51 1014.49 1014.50 1014.53 1014.58 1014.64 1014.69
1017.84 1018.58 1019.01 1019.05 1018.63 1017.77 1016.58 1015.21 1013.82 1012.61 1011.69 1011.13 1010.92 1010.97 1011.18 1011.42 1011.59 1011.64 1011.57 1011.42 1011.26 1011.17 1011.21 1011.39 1011.70 1012.09 1012.48 1012.83 1013.10 1013.27 1013.37 1013.42 1013.48 1013.57 1013.70 1013.88 1014.06 1014.22 1014.34 1014.41 1014.43 1014.41 1014.38 1014.36 1014.38 1014.41 1014.47 1014.53 1014.58
1018.11 1018.72 1019.00 1018.88 1018.34 1017.41 1016.20 1014.87 1013.58 1012.49 1011.69 1011.24 1011.09 1011.17 1011.38 1011.59 1011.73 1011.75 1011.67 1011.52 1011.39 1011.32 1011.38 1011.56 1011.85 1012.19 1012.52 1012.80 1013.01 1013.13 1013.20 1013.24 1013.31 1013.41 1013.57 1013.75 1013.94 1014.11 1014.23 1014.28 1014.29 1014.26 1014.23 1014.21 1014.21 1014.25 1014.30 1014.36 1014.40
1018.07 1018.53 1018.67 1018.43 1017.82 1016.88 1015.73 1014.51 1013.36 1012.42 1011.75 1011.39 1011.29 1011.37 1011.54 1011.70 1011.79 1011.77 1011.67 1011.54 1011.43 1011.39 1011.47 1011.66 1011.93 1012.23 1012.52 1012.74 1012.90 1012.98 1013.03 1013.08 1013.16 1013.28 1013.45 1013.65 1013.85 1014.01 1014.11 1014.15 1014.14 1014.09 1014.05 1014.01 1014.01 1014.04 1014.08 1014.13 1014.17
1017.76 1018.07 1018.09 1017.77 1017.13 1016.24 1015.20 1014.12 1013.14 1012.35 1011.81 1011.52 1011.44 1011.49 1011.60 1011.69 1011.71 1011.64 1011.52 1011.40 1011.31 1011.32 1011.42 1011.62 1011.88 1012.16 1012.41 1012.60 1012.73 1012.80 1012.85 1012.91 1013.01 1013.16 1013.35 1013.55 1013.74 1013.89 1013.98 1013.99 1013.96 1013.90 1013.83 1013.79 1013.77 1013.79 1013.82 1013.86 1013.89
1017.30 1017.47 1017.37 1016.99 1016.37 1015.55 1014.64 1013.72 1012.91 1012.27 1011.83 1011.58 1011.49 1011.49 1011.52 1011.52 1011.46 1011.34 1011.21 1011.08 1011.02 1011.05 1011.18 1011.39 1011.65 1011.92 1012.15 1012.33 1012.45 1012.53 1012.61 1012.70 1012.83 1013.00 1013.21 1013.42 1013.60 1013.73 1013.80 1013.79 1013.73 1013.65 1013.58 1013.52 1013.50 1013.52 1013.55 1013.58 1013.60
1016.82 1016.85 1016.65 1016.24 1015.63 1014.90 1014.11 1013.35 1012.68 1012.15 1011.78 1011.56 1011.43 1011.36 1011.30 1011.21 1011.07 1010.91 1010.75 1010.63 1010.58 1010.62 1010.76 1010.98 1011.23 1011.49 1011.72 1011.90 1012.05 1012.16 1012.27 1012.41 1012.58 1012.78 1013.01 1013.22 1013.39 1013.50 1013.54 1013.52 1013.45 1013.36 1013.28 1013.23 1013.22 1013.24 1013.27 1013.30 1013.31
1016.43 1016.34 1016.07 1015.62 1015.04 1014.37 1013.69 1013.04 1012.48 1012.03 1011.70 1011.46 1011.29 1011.15 1011.01 1010.84 1010.64 1010.43 1010.24 1010.11 1010.05 1010.09 1010.22 1010.42 1010.66 1010.91 1011.13 1011.34 1011.51 1011.67 1011.84 1012.02 1012.23 1012.47 1012.70 1012.91 1013.06 1013.16 1013.18 1013.15 1013.08 1013.01 1012.95 1012.92 1012.92 1012.95 1012.99 1013.01 1013.01
1016.21 1016.03 1015.69 1015.21 1014.64 1014.03 1013.41 1012.83 1012.33 1011.92 1011.60 1011.35 1011.13 1010.94 1010.73 1010.51 1010.27 1010.03 1009.81 1009.65 1009.57 1009.57 1009.66 1009.81 1010.01 1010.23 1010.45 1010.67 1010.87 1011.08 1011.30 1011.53 1011.78 1012.03 1012.27 1012.47 1012.61 1012.69 1012.71 1012.69 1012.64 1012.59 1012.56 1012.57 1012.60 1012.65 1012.70 1012.71 1012.69
1016.17 1015.93 1015.54 1015.04 1014.47 1013.88 1013.29 1012.75 1012.27 1011.87 1011.54 1011.27 1011.03 1010.80 1010.57 1010.32 1010.06 1009.81 1009.57 1009.37 1009.23 1009.16 1009.17 1009.25 1009.38 1009.56 1009.75 1009.97 1010.21 1010.45 1010.71 1010.98 1011.25 1011.51 1011.74 1011.92 1012.05 1012.12 1012.14 1012.13 1012.11 1012.10 1012.12 1012.16 1012.23 1012.30 1012.35 1012.36 1012.31
1016.25 1015.97 1015.56 1015.05 1014.49 1013.90 1013.33 1012.79 1012.31 1011.90 1011.56 1011.27 1011.03 1010.80 1010.58 1010.35 1010.10 1009.84 1009.58 1009.33 1009.12 1008.96 1008.86 1008.83 1008.87 1008.98 1009.14 1009.34 1009.59 1009.86 1010.14 1010.43 1010.70 1010.95 1011.15 1011.30 1011.40 1011.46 1011.48 1011.49 1011.50 1011.54 1011.60 1011.69 1011.78 1011.87 1011.92 1011.91 1011.83
1016.35 1016.08 1015.68 1015.19 1014.64 1014.06 1013.48 1012.94 1012.45 1012.02 1011.67 1011.39 1011.16 1010.97 1010.79 1010.60 1010.39 1010.14 1009.86 1009.56 1009.27 1009.00 1008.77 1008.62 1008.55 1008.57 1008.68 1008.86 1009.09 1009.37 1009.66 1009.94 1010.19 1010.40 1010.56 1010.67 1010.73 1010.76 1010.78 1010.80 1010.84 1010.91 1011.00 1011.12 1011.23 1011.32 1011.35 1011.32 1011.21
1016.38 1016.16 1015.82 1015.37 1014.86 1014.30 1013.73 1013.17 1012.66 1012.22 1011.86 1011.59 1011.40 1011.27 1011.16 1011.04 1010.88 1010.66 1010.37 1010.03 1009.64 1009.26 1008.91 1008.63 1008.45 1008.39 1008.43 1008.58 1008.80 1009.06 1009.33 1009.58 1009.79 1009.94 1010.03 1010.08 1010.08 1010.08 1010.07 1010.09 1010.14 1010.22 1010.33 1010.45 1010.56 1010.63 1010.64 1010.58 1010.44
1016.28 1016.15 1015.90 1015.54 1015.09 1014.57 1014.01 1013.45 1012.92 1012.47 1012.11 1011.86 1011.72 1011.65 1011.62 1011.58 1011.48 1011.30 1011.01 1010.63 1010.18 1009.70 1009.24 1008.85 1008.57 1008.43 1008.43 1008.53 1008.73 1008.96 1009.20 1009.40 1009.54 1009.62 1009.63 1009.59 1009.53 1009.46 1009.41 1009.41 1009.44 1009.51 1009.61 1009.70 1009.78 1009.82 1009.79 1009.69 1009.52
1016.02 1016.02 1015.90 1015.66 1015.30 1014.85 1014.32 1013.76 1013.21 1012.74 1012.37 1012.14 1012.03 1012.02 1012.06 1012.10 1012.08 1011.94 1011.67 1011.27 1010.78 1010.23 1009.69 1009.23 1008.89 1008.69 1008.64 1008.72 1008.89 1009.09 1009.29 1009.43 1009.49 1009.48 1009.39 1009.26 1009.11 1008.97 1008.86 1008.81 1008.80 1008.83 1008.88 1008.92 1008.94 1008.92 1008.84 1008.70 1008.50
1015.66 1015.81 1015.84 1015.74 1015.50 1015.12 1014.62 1014.06 1013.50 1013.00 1012.61 1012.36 1012.27 1012.30 1012.40 1012.51 1012.55 1012.47 1012.24 1011.86 1011.35 1010.78 1010.21 1009.71 1009.34 1009.12 1009.06 1009.12 1009.27 1009.44 1009.58 1009.65 1009.63 1009.52 1009.34 1009.10 1008.86 1008.64 1008.46 1008.34 1008.27 1008.23 1008.20 1008.17 1008.11 1008.01 1007.86 1007.67 1007.44
1015.25 1015.56 1015.76 1015.81 1015.68 1015.38 1014.92 1014.35 1013.76 1013.20 1012.77 1012.49 1012.39 1012.43 1012.57 1012.73 1012.84 1012.82 1012.65 1012.31 1011.84 1011.30 1010.75 1010.26 1009.90 1009.68 1009.62 1009.68 1009.80 1009.94 1010.04 1010.04 1009.94 1009.74 1009.46 1009.14 1008.81 1008.51 1008.25 1008.05 1007.90 1007.77 1007.65 1007.52 1007.37 1007.17 1006.95 1006.70 1006.43
1014.88 1015.35 1015.70 1015.89 1015.87 1015.63 1015.19 1014.61 1013.96 1013.34 1012.84 1012.50 1012.36 1012.39 1012.55 1012.76 1012.92 1012.98 1012.89 1012.63 1012.24 1011.76 1011.27 1010.83 1010.50 1010.32 1010.27 1010.33 1010.44 1010.55 1010.59 1010.54 1010.37 1010.10 1009.74 1009.34 1008.94 1008.57 1008.24 1007.96 1007.72 1007.50 1007.28 1007.04 1006.78 1006.49 1006.18 1005.86 1005.54
1014.61 1015.20 1015.68 1015.98 1016.05 1015.85 1015.41 1014.80 1014.09 1013.39 1012.80 1012.40 1012.20 1012.21 1012.37 1012.61 1012.84 1012.98 1012.98 1012.83 1012.54 1012.17 1011.77 1011.40 1011.14 1010.99 1010.97 1011.02 1011.11 1011.18 1011.19 1011.08 1010.86 1010.53 1010.12 1009.67 1009.22 1008.79 1008.40 1008.06 1007.74 1007.42 1007.10 1006.75 1006.38 1005.99 1005.59 1005.19 1004.82
1014.44 1015.13 1015.71 1016.08 1016.19 1016.02 1015.56 1014.90 1014.12 1013.35 1012.68 1012.20 1011.95 1011.93 1012.09 1012.36 1012.65 1012.89 1013.00 1012.97 1012.81 1012.55 1012.25 1011.98 1011.78 1011.67 1011.65 1011.70 1011.76 1011.80 1011.75 1011.61 1011.34 1010.98 1010.55 1010.07 1009.59 1009.14 1008.71 1008.31 1007.92 1007.52 1007.10 1006.65 1006.18 1005.69 1005.20 1004.73 1004.29
1014.34 1015.09 1015.72 1016.14 1016.27 1016.08 1015.60 1014.89 1014.05 1013.21 1012.47 1011.94 1011.64 1011.61 1011.78 1012.09 1012.45 1012.78 1013.01 1013.10 1013.07 1012.93 1012.74 1012.55 1012.40 1012.31 1012.29 1012.32 1012.35 1012.34 1012.25 1012.07 1011.79 1011.41 1010.97 1010.49 1010.01 1009.54 1009.09 1008.65 1008.20 1007.73 1007.23 1006.70 1006.13 1005.55 1004.98 1004.43 1003.93
1014.27 1015.04 1015.68 1016.10 1016.22 1016.01 1015.50 1014.75 1013.87 1012.99 1012.21 1011.65 1011.35 1011.31 1011.51 1011.87 1012.30 1012.72 1013.06 1013.27 1013.36 1013.33 1013.23 1013.10 1012.98 1012.91 1012.87 1012.86 1012.84 1012.78 1012.66 1012.45 1012.15 1011.77 1011.34 1010.88 1010.41 1009.94 1009.48 1009.01 1008.52 1007.99 1007.42 1006.81 1006.16 1005.51 1004.87 1004.26 1003.70
1014.16 1014.92 1015.53 1015.92 1016.00 1015.76 1015.23 1014.46 1013.58 1012.69 1011.93 1011.38 1011.10 1011.10 1011.33 1011.75 1012.25 1012.75 1013.18 1013.50 1013.68 1013.74 1013.70 1013.62 1013.52 1013.43 1013.37 1013.31 1013.24 1013.14 1012.98 1012.74 1012.44 1012.07 1011.66 1011.21 1010.76 1010.29 1009.82 1009.32 1008.79 1008.21 1007.58 1006.91 1006.21 1005.50 1004.80 1004.15 1003.54
1013.97 1014.68 1015.24 1015.57 1015.61 1015.34 1014.79 1014.04 1013.19 1012.35 1011.64 1011.16 1010.93 1010.99 1011.28 1011.75 1012.32 1012.88 1013.39 1013.77 1014.02 1014.14 1014.15 1014.10 1014.00 1013.89 1013.79 1013.68 1013.57 1013.42 1013.22 1012.97 1012.66 1012.30 1011.90 1011.48 1011.03 1010.56 1010.07 1009.54 1008.97 1008.34 1007.66 1006.94 1006.20 1005.45 1004.73 1004.05 1003.42
1013.69 1014.33 1014.82 1015.07 1015.06 1014.77 1014.23 1013.53 1012.74 1011.99 1011.39 1010.99 1010.86 1010.99 1011.35 1011.87 1012.49 1013.10 1013.65 1014.08 1014.37 1014.53 1014.57 1014.52 1014.42 1014.30 1014.16 1014.01 1013.85 1013.67 1013.45 1013.18 1012.87 1012.51 1012.11 1011.68 1011.23 1010.74 1010.22 1009.66 1009.04 1008.37 1007.65 1006.89 1006.11 1005.35 1004.61 1003.92 1003.29
Thickness
5736 5739 5741 5732 5712 5697 5700 5713 5726 5734 5749 5764 5768 5766 5763 5763 5760 5758 5776 5782 5779 5775 5772 5769 5766 5764 5760 5758 5755 5754 5752 5752 5752 5752 5752 5752 5751 5750 5749 5747 5746 5745 5743 5740 5738 5736 5736 5733 5730
5733 5735 5729 5715 5696 5686 5695 5714 5725 5737 5754 5763 5764 5762 5761 5763 5770 5772 5776 5779 5779 5775 5771 5768 5765 5762 5759 5756 5753 5751 5751 5751 5751 5751 5750 5750 5749 5748 5746 5745 5743 5742 5740 5737 5735 5733 5731 5728 5725
5730 5728 5710 5699 5691 5686 5699 5719 5730 5745 5758 5760 5759 5761 5761 5762 5769 5772 5779 5780 5777 5773 5770 5768 5764 5761 5758 5755 5752 5751 5750 5750 5749 5749 5748 5748 5747 5746 5744 5742 5740 5738 5736 5733 5731 5728 5726 5723 5719
5719 5710 5699 5689 5693 5699 5707 5718 5731 5741 5752 5760 5758 5753 5758 5768 5772 5777 5781 5778 5774 5771 5770 5767 5764 5760 5758 5755 5751 5750 5749 5748 5747 5747 5745 5745 5745 5743 5741 5739 5737 5734 5732 5729 5727 5724 5722 5719 5716
5708 5693 5683 5678 5689 5703 5714 5725 5736 5742 5748 5756 5755 5749 5752 5767 5774 5777 5777 5775 5772 5770 5768 5766 5763 5760 5757 5754 5751 5749 5748 5747 5746 5744 5743 5742 5742 5740 5738 5736 5734 5731 5729 5726 5723 5721 5718 5716 5713
5690 5682 5668 5670 5684 5699 5713 5727 5737 5742 5746 5752 5750 5746 5752 5765 5768 5773 5775 5772 5771 5769 5766 5764 5762 5759 5757 5753 5750 5749 5747 5745 5744 5743 5741 5739 5738 5737 5735 5733 5731 5728 5726 5724 5721 5719 5716 5714 5711
5682 5674 5670 5676 5680 5691 5712 5725 5731 5739 5742 5748 5752 5744 5750 5759 5766 5772 5772 5769 5767 5766 5763 5762 5761 5758 5756 5753 5750 5748 5746 5744 5743 5742 5739 5737 5735 5733 5732 5730 5728 5726 5724 5722 5720 5717 5716 5713 5710
5685 5675 5674 5673 5680 5689 5710 5721 5732 5736 5742 5755 5756 5746 5748 5760 5767 5769 5768 5765 5763 5762 5761 5760 5759 5757 5755 5752 5750 5748 5745 5743 5741 5739 5737 5734 5732 5731 5729 5727 5726 5724 5722 5720 5718 5716 5715 5713 5710
5686 5667 5663 5674 5683 5693 5708 5715 5728 5738 5745 5753 5756 5758 5762 5765 5764 5763 5761 5759 5758 5758 5757 5757 5756 5755 5754 5751 5749 5747 5744 5742 5740 5738 5736 5733 5731 5729 5727 5725 5724 5723 5721 5719 5717 5715 5714 5712 5709
5673 5660 5670 5686 5694 5696 5705 5713 5725 5733 5735 5745 5749 5755 5759 5760 5760 5759 5756 5755 5756 5755 5754 5754 5754 5753 5751 5750 5748 5745 5742 5740 5738 5736 5734 5732 5729 5727 5725 5723 5722 5721 5720 5718 5716 5714 5712 5709 5706
5672 5669 5682 5692 5699 5701 5705 5714 5728 5728 5728 5740 5745 5751 5751 5753 5755 5756 5757 5757 5757 5756 5755 5754 5752 5750 5749 5748 5747 5743 5740 5738 5736 5734 5733 5730 5727 5725 5722 5720 5719 5718 5717 5715 5713 5710 5708 5705 5701
5671 5679 5687 5694 5701 5703 5707 5716 5722 5728 5732 5745 5750 5754 5749 5749 5752 5757 5759 5759 5757 5755 5755 5756 5752 5750 5748 5747 5745 5742 5738 5736 5734 5732 5730 5727 5725 5722 5719 5717 5715 5714 5712 5709 5707 5704 5701 5698 5696
5670 5679 5689 5696 5699 5704 5710 5713 5720 5729 5740 5746 5751 5751 5749 5750 5753 5758 5760 5759 5757 5756 5756 5757 5754 5751 5749 5747 5744 5741 5737 5734 5732 5730 5727 5724 5721 5718 5715 5713 5711 5709 5707 5704 5701 5698 5695 5693 5691
5674 5681 5687 5694 5698 5705 5709 5714 5719 5730 5740 5744 5747 5746 5749 5751 5755 5756 5758 5760 5760 5760 5759 5759 5756 5754 5752 5748 5744 5741 5737 5733 5729 5726 5724 5720 5717 5715 5712 5709 5707 5705 5702 5699 5696 5693 5690 5688 5686
5675 5674 5678 5689 5698 5705 5709 5707 5717 5731 5736 5737 5742 5745 5748 5751 5753 5754 5757 5758 5758 5759 5759 5758 5757 5755 5752 5750 5746 5741 5736 5731 5726 5722 5720 5717 5714 5712 5708 5706 5704 5701 5696 5692 5689 5685 5682 5680 5678
5667 5665 5664 5682 5697 5704 5699 5692 5718 5732 5733 5734 5738 5739 5743 5746 5747 5749 5751 5754 5756 5758 5759 5760 5760 5756 5752 5749 5744 5739 5733 5728 5724 5720 5716 5713 5710 5706 5702 5699 5697 5693 5690 5688 5684 5681 5678 5677 5675
5650 5648 5654 5670 5693 5697 5694 5695 5719 5730 5733 5731 5730 5729 5733 5735 5738 5741 5744 5748 5752 5755 5758 5759 5758 5756 5751 5746 5741 5735 5729 5724 5721 5717 5714 5711 5707 5703 5699 5697 5695 5691 5688 5685 5683 5680 5675 5674 5672
5638 5643 5651 5660 5687 5691 5689 5697 5714 5723 5728 5724 5719 5721 5723 5725 5728 5733 5737 5740 5744 5748 5752 5753 5752 5749 5745 5739 5732 5727 5723 5720 5718 5715 5712 5709 5705 5702 5699 5697 5694 5689 5685 5683 5678 5675 5672 5670 5666
5646 5649 5649 5664 5688 5692 5693 5698 5709 5716 5714 5712 5711 5713 5716 5719 5723 5726 5728 5731 5736 5740 5742 5742 5743 5742 5738 5731 5724 5719 5716 5715 5713 5711 5708 5705 5702 5699 5696 5694 5691 5687 5683 5682 5679 5673 5669 5667 5661
5642 5641 5648 5666 5690 5693 5694 5696 5706 5712 5709 5709 5709 5709 5712 5714 5717 5719 5721 5721 5723 5725 5727 5729 5730 5732 5732 5728 5723 5717 5713 5709 5706 5705 5703 5700 5698 5695 5693 5690 5688 5685 5681 5679 5675 5669 5665 5664 5657
5638 5640 5649 5662 5676 5685 5687 5685 5698 5701 5704 5705 5706 5708 5709 5709 5709 5709 5709 5709 5711 5712 5712 5715 5715 5717 5719 5719 5716 5711 5707 5703 5699 5697 5695 5694 5692 5690 5688 5686 5683 5680 5676 5673 5669 5663 5657 5656 5654
5636 5655 5660 5666 5659 5658 5672 5660 5685 5691 5694 5697 5698 5700 5701 5702 5701 5700 5699 5700 5700 5701 5702 5703 5703 5704 5704 5705 5703 5698 5693 5689 5687 5686 5685 5684 5684 5682 5679 5677 5675 5672 5669 5665 5663 5659 5654 5649 5647
5649 5665 5665 5662 5657 5653 5658 5657 5672 5685 5684 5688 5692 5695 5695 5694 5692 5691 5691 5691 5692 5693 5693 5693 5693 5692 5691 5690 5688 5684 5680 5677 5676 5675 5673 5672 5671 5669 5666 5664 5663 5660 5658 5655 5652 5649 5646 5642 5639
5657 5655 5650 5640 5638 5637 5653 5650 5669 5679 5687 5688 5688 5689 5689 5687 5685 5684 5684 5684 5684 5684 5683 5682 5682 5679 5678 5676 5674 5670 5667 5664 5662 5660 5657 5655 5654 5653 5650 5649 5647 5645 5642 5640 5638 5635 5633 5630 5628
5649 5633 5621 5623 5621 5633 5656 5655 5674 5695 5700 5697 5689 5683 5681 5680 5678 5677 5676 5676 5675 5675 5674 5672 5669 5666 5664 5662 5659 5656 5652 5648 5645 5642 5639 5637 5636 5635 5633 5632 5630 5628 5626 5624 5622 5620 5618 5616 5614
5641 5636 5622 5619 5624 5638 5658 5654 5682 5693 5699 5694 5688 5682 5677 5674 5673 5672 5671 5669 5668 5667 5663 5659 5656 5652 5650 5647 5644 5641 5638 5634 5631 5628 5625 5622 5619 5618 5617 5616 5614 5612 5609 5607 5605 5603 5601 5600 5598
5635 5634 5639 5630 5636 5635 5642 5659 5682 5683 5685 5683 5678 5675 5670 5669 5668 5666 5664 5662 5660 5655 5650 5646 5643 5639 5636 5632 5630 5626 5623 5619 5616 5612 5608 5605 5602 5600 5598 5596 5595 5593 5590 5587 5584 5582 5581 5579 5578
5649 5640 5627 5626 5625 5625 5640 5652 5664 5672 5671 5672 5670 5668 5666 5664 5660 5658 5655 5652 5647 5641 5637 5633 5630 5626 5623 5621 5617 5614 5610 5605 5601 5597 5592 5589 5585 5582 5579 5577 5574 5572 5569 5566 5564 5562 5561 5558 5557
5638 5637 5634 5627 5625 5623 5629 5645 5670 5671 5669 5669 5667 5665 5663 5658 5653 5649 5645 5640 5634 5629 5625 5621 5618 5615 5612 5608 5603 5599 5594 5589 5584 5579 5575 5571 5568 5564 5560 5557 5554 5550 5547 5543 5540 5539 5539 5537 5537
5639 5640 5633 5627 5627 5624 5622 5639 5672 5671 5668 5666 5663 5662 5657 5651 5646 5641 5635 5629 5623 5618 5614 5610 5606 5602 5597 5592 5587 5582 5577 5572 5567 5562 5558 5553 5549 5545 5540 5536 5533 5529 5525 5521 5516 5516 5515 5513 5513